πŸ“Š DonnΓ©es MΓ©tΓ©o - Bordeaux

Total mesures

14,494

TempΓ©rature moyenne

18.9Β°C

Temp. Min/Max

2.9Β° / 42.4Β°

HumiditΓ© moyenne

64.8%

Pression moyenne

1014.7 hPa
enregistrements
ID Date/Heure Temp (Β°C) HumiditΓ© (%) Pression (hPa) Tendance LuminositΓ© (lux) Situation
6094 15/04/2026 14:45 18.6 75.0 1,019.9 β†’ Stable 55,368 pluvieux-gris (approx.)
6093 15/04/2026 14:30 20.2 59.0 1,019.9 β†’ Stable 52,500 frais-stable
6092 15/04/2026 14:15 19.4 62.0 1,019.9 β†’ Stable 54,348 frais-stable
6091 15/04/2026 13:45 19.2 63.0 1,020.1 β†’ Stable 57,504 frais-stable
6090 15/04/2026 13:15 19.0 64.0 1,020.0 β†’ Stable 62,964 frais-stable
6089 15/04/2026 12:45 18.6 68.0 1,020.2 β†’ Stable 69,168 frais-stable
6088 15/04/2026 12:30 17.6 73.0 1,020.2 β†’ Stable 36,852 pluvieux-gris (approx.)
6087 15/04/2026 12:15 17.0 77.0 1,020.2 β†’ Stable 29,172 pluvieux-gris (approx.)
6086 15/04/2026 11:45 16.4 83.0 1,020.2 β†’ Stable 23,700 pluvieux-gris (approx.)
6085 15/04/2026 11:15 17.9 66.0 1,020.2 β†’ Stable 81,480 frais-stable
6084 15/04/2026 10:45 17.1 67.0 1,020.6 β†’ Stable 82,404 frais-stable
6083 15/04/2026 10:15 16.0 80.0 1,020.6 β†’ Stable 24,540 pluvieux-gris
6082 15/04/2026 09:45 15.7 80.0 1,020.6 β†’ Stable 22,404 pluvieux-gris
6081 15/04/2026 09:15 15.3 84.0 1,020.6 β†’ Stable 15,828 pluvieux-gris
6080 15/04/2026 08:45 14.7 88.0 1,020.2 β†’ Stable 14,172 pluvieux-gris
6079 15/04/2026 08:15 14.2 91.0 1,020.2 β†’ Stable 13,800 pluvieux-gris
6078 15/04/2026 07:45 13.9 92.0 1,019.9 β†’ Stable 11,580 pluvieux-gris
6077 15/04/2026 07:15 13.4 92.0 1,019.9 β†’ Stable 13,884 pluvieux-gris
6076 15/04/2026 06:45 13.1 95.0 1,019.6 β†’ Stable 9,912 pluvieux-gris
6075 15/04/2026 06:30 12.9 96.0 1,019.6 β†’ Stable 5,928 pluvieux-gris
6074 15/04/2026 06:15 12.8 96.0 1,019.6 β†’ Stable 3,516 pluvieux-gris
6073 15/04/2026 05:45 12.4 97.0 1,019.4 β†’ Stable 924 pluvieux-gris
6072 15/04/2026 05:15 12.6 97.0 1,019.4 β†’ Stable 0 pluvieux-gris
6071 15/04/2026 04:45 12.2 98.0 1,019.2 β†’ Stable 0 pluvieux-gris
6070 15/04/2026 04:15 12.1 96.0 1,019.2 β†’ Stable 0 pluvieux-gris
6069 15/04/2026 03:45 12.0 97.0 1,019.5 β†’ Stable 0 pluvieux-gris
6068 15/04/2026 03:15 11.9 96.0 1,019.5 β†’ Stable 0 pluvieux-gris
6067 15/04/2026 02:45 11.7 95.0 1,019.7 β†’ Stable 0 pluvieux-gris
6066 15/04/2026 02:30 11.4 94.0 1,019.7 β†’ Stable 0 pluvieux-gris
6065 15/04/2026 02:15 11.3 93.0 1,019.7 β†’ Stable 0 pluvieux-gris
6064 15/04/2026 01:45 11.5 91.0 1,020.1 β†’ Stable 0 pluvieux-gris
6063 15/04/2026 01:30 11.6 92.0 1,020.1 β†’ Stable 0 pluvieux-gris
6062 15/04/2026 01:15 11.7 91.0 1,020.1 β†’ Stable 0 pluvieux-gris
6061 15/04/2026 00:45 11.9 89.0 1,020.2 β†’ Stable 0 pluvieux-gris
6060 15/04/2026 00:30 12.1 88.0 1,020.2 β†’ Stable 0 pluvieux-gris
6059 15/04/2026 00:15 12.3 87.0 1,020.2 β†’ Stable 0 pluvieux-gris
6058 14/04/2026 23:45 12.3 86.0 1,020.2 β†’ Stable 0 pluvieux-gris
6057 14/04/2026 23:30 12.5 86.0 1,020.2 β†’ Stable 0 pluvieux-gris
6056 14/04/2026 23:15 12.7 86.0 1,020.2 β†’ Stable 0 pluvieux-gris
6055 14/04/2026 22:45 13.1 83.0 1,020.4 β†’ Stable 0 pluvieux-gris
6054 14/04/2026 22:30 12.7 82.0 1,020.4 β†’ Stable 0 pluvieux-gris
6053 14/04/2026 22:15 12.9 80.0 1,020.4 β†’ Stable 0 pluvieux-gris
6052 14/04/2026 21:45 13.3 78.0 1,020.4 β†’ Stable 0 pluvieux-gris
6051 14/04/2026 21:30 13.3 80.0 1,020.4 β†’ Stable 0 pluvieux-gris
6050 14/04/2026 21:15 13.4 79.0 1,020.4 β†’ Stable 0 pluvieux-gris
6049 14/04/2026 20:45 13.4 78.0 1,020.1 β†’ Stable 0 pluvieux-gris
6048 14/04/2026 20:30 14.0 75.0 1,020.1 β†’ Stable 0 pluvieux-gris
6047 14/04/2026 20:15 14.2 74.0 1,020.1 β†’ Stable 0 pluvieux-gris
6046 14/04/2026 19:45 14.7 70.0 1,019.3 β†’ Stable 0 pluvieux-gris
6045 14/04/2026 19:30 15.2 66.0 1,019.3 β†’ Stable 0 frais-stable
6044 14/04/2026 19:15 15.4 66.0 1,019.3 β†’ Stable 0 frais-stable
6043 14/04/2026 18:45 15.9 64.0 1,018.9 β†’ Stable 648 frais-stable
6042 14/04/2026 18:30 16.0 60.0 1,018.9 β†’ Stable 3,708 frais-stable
6041 14/04/2026 18:15 16.4 57.0 1,018.9 β†’ Stable 7,968 frais-stable
6040 14/04/2026 17:45 17.2 52.0 1,018.6 β†’ Stable 16,572 frais-stable
6039 14/04/2026 17:30 17.4 50.0 1,018.6 β†’ Stable 21,024 frais-stable
6038 14/04/2026 17:15 17.8 49.0 1,018.6 β†’ Stable 27,036 frais-stable
6037 14/04/2026 16:45 18.4 50.0 1,018.4 β†’ Stable 37,224 frais-stable
6036 14/04/2026 16:30 18.2 53.0 1,018.4 β†’ Stable 36,108 frais-stable
6035 14/04/2026 16:15 18.3 52.0 1,018.4 β†’ Stable 44,256 frais-stable
6034 14/04/2026 15:45 18.7 50.0 1,018.5 β†’ Stable 55,464 frais-stable
6033 14/04/2026 15:15 18.5 47.0 1,018.5 β†’ Stable 67,596 frais-stable
6032 14/04/2026 14:45 18.4 49.0 1,018.4 β†’ Stable 75,924 frais-stable
6031 14/04/2026 14:30 18.6 48.0 1,018.4 β†’ Stable 61,848 frais-stable
6030 14/04/2026 14:15 19.0 47.0 1,018.4 β†’ Stable 71,208 frais-stable
6029 14/04/2026 13:45 19.3 45.0 1,018.4 β†’ Stable 80,556 frais-stable
6028 14/04/2026 13:15 18.9 45.0 1,018.3 β†’ Stable 90,828 frais-stable
6027 14/04/2026 12:45 18.5 45.0 1,018.6 β†’ Stable 96,300 frais-stable
6026 14/04/2026 12:15 17.8 49.0 1,018.6 β†’ Stable 80,376 frais-stable
6025 14/04/2026 11:45 17.1 51.0 1,018.9 β†’ Stable 81,204 frais-stable
6024 14/04/2026 11:15 16.8 52.0 1,018.9 β†’ Stable 88,428 frais-stable
6023 14/04/2026 10:45 16.0 54.0 1,019.3 β†’ Stable 85,188 frais-stable
6022 14/04/2026 10:15 14.6 62.0 1,019.3 β†’ Stable 55,272 frais-stable
6021 14/04/2026 09:45 14.2 64.0 1,019.1 β†’ Stable 53,328 frais-stable
6020 14/04/2026 09:15 13.8 68.0 1,019.1 β†’ Stable 50,184 frais-stable
6019 14/04/2026 08:45 12.7 72.0 1,019.2 β†’ Stable 41,856 pluvieux-gris
6018 14/04/2026 08:15 11.6 76.0 1,019.2 β†’ Stable 49,536 pluvieux-gris
6017 14/04/2026 07:45 9.3 83.0 1,019.1 β†’ Stable 40,188 pluvieux-gris
6016 14/04/2026 07:15 7.1 85.0 1,019.1 β†’ Stable 26,664 pluvieux-gris
6015 14/04/2026 06:45 5.8 91.0 1,018.3 β†’ Stable 18,708 pluvieux-gris
6014 14/04/2026 06:15 4.8 93.0 1,018.3 β†’ Stable 6,480 pluvieux-gris
6013 14/04/2026 05:45 4.1 96.0 1,017.9 β†’ Stable 1,944 pluvieux-gris
6012 14/04/2026 05:15 3.5 99.0 1,017.9 β†’ Stable 0 pluvieux-gris
6011 14/04/2026 04:45 3.9 97.0 1,017.5 β†’ Stable 0 pluvieux-gris
6010 14/04/2026 04:15 4.1 96.0 1,017.5 β†’ Stable 0 pluvieux-gris
6009 14/04/2026 03:45 4.3 96.0 1,017.1 β†’ Stable 0 pluvieux-gris
6008 14/04/2026 03:15 4.6 95.0 1,017.1 β†’ Stable 0 pluvieux-gris
6007 14/04/2026 02:45 4.9 94.0 1,017.1 β†’ Stable 0 pluvieux-gris
6006 14/04/2026 02:30 5.2 92.0 1,017.1 β†’ Stable 0 pluvieux-gris
6005 14/04/2026 02:15 5.2 92.0 1,017.1 β†’ Stable 0 pluvieux-gris
6004 14/04/2026 01:45 5.5 91.0 1,017.1 β†’ Stable 0 pluvieux-gris
6003 14/04/2026 01:30 5.6 90.0 1,017.1 β†’ Stable 0 pluvieux-gris
6002 14/04/2026 01:15 5.7 90.0 1,017.0 β†’ Stable 0 pluvieux-gris
6001 14/04/2026 00:45 6.1 88.0 1,017.1 β†’ Stable 0 pluvieux-gris
6000 14/04/2026 00:30 7.0 84.0 1,017.1 β†’ Stable 0 pluvieux-gris
5999 14/04/2026 00:15 7.2 84.0 1,017.1 β†’ Stable 0 pluvieux-gris
5998 13/04/2026 23:45 7.6 82.0 1,016.8 β†’ Stable 0 pluvieux-gris
5997 13/04/2026 23:30 7.5 83.0 1,016.8 β†’ Stable 0 pluvieux-gris
5996 13/04/2026 23:15 7.6 82.0 1,016.8 β†’ Stable 0 pluvieux-gris
5995 13/04/2026 22:45 8.0 81.0 1,016.6 β†’ Stable 0 pluvieux-gris